Location: B�l�ko
(13.2663°N, 5.1189°W)
Time: 06:56:20
(UTC+00:00)

Daily predictions for brighter satellites

Satellite Brightness Start Highest point End
(mag) Time Altitude Azimuth Time Altitude Azimuth Time Altitude Azimuth
H-2A R/B 4.4 17:18:10 10° SW 17:24:44 75° SE 18:12:18 10° ENE
Envisat 4.1 18:08:37 10° S 18:13:32 52° W 18:18:27 10° NNW
Cosmos 2360 4.5 18:09:03 10° S 18:14:32 49° ESE 18:20:02 10° NNE
Fermi 3.8 18:12:03 10° WSW 18:16:08 75° SSE 18:20:12 10° ENE
Aureole 3 3.5 18:12:16 10° S 18:16:20 72° W 18:19:40 10° N
COSMO-SKYMED 1 2.7 18:13:09 10° N 18:17:29 80° WNW 18:21:48 10° SSW
Meteor 1-11 4.3 18:12:47 10° N 18:18:34 78° E 18:24:22 10° S
MOS 1 Rocket 4.5 18:14:30 10° NE 18:18:39 26° E 18:23:00 10° SSE
GPS 2-14 Rocket1 3.5 18:15:10 10° WNW 18:19:06 40° N 18:23:01 10° E
Meteor 2-8 Rocket 4.5 18:15:07 10° S 18:21:12 89° E 18:27:18 10° N
Cosmos 1455 3.1 18:18:44 10° SSE 18:21:56 27° E 18:25:09 10° NNE
SEDSat Delta rocket 4.2 18:15:56 10° SW 18:22:39 65° SSE 18:29:05 10° ENE
SMAP 3.6 18:18:23 10° S 18:22:59 64° WSW 18:27:35 10° NNW
USA 281 3.2 18:18:08 10° SSE 18:24:38 68° ENE 18:31:08 10° NNW
Milstar 3 4.2 18:19:46 10° WNW 18:25:38 25° N 18:31:04 10° NE
Cosmos 1825 Rocket 3.7 18:22:59 10° N 18:27:22 79° W 18:31:44 10° S
Cosmos 44 Rocket 3.2 18:22:46 10° SSW 18:27:23 87° ESE 18:32:07 10° NNE
Cosmos 2278 4.1 18:22:28 10° S 18:27:49 43° ESE 18:33:10 10° NE
Cosmos 1939 Rocket 3.3 18:27:56 10° SE 18:31:42 38° ENE 18:35:24 10° N
Meteor 2-10 Rocket 3.6 18:29:08 10° S 18:34:40 72° E 18:39:58 10° NNE
Cosmos 1553 Rocket 4.1 18:28:20 10° S 18:34:45 88° W 18:41:07 10° N
Helios 1A Rocket 3.8 18:35:40 10° SE 18:39:13 28° ENE 18:42:43 10° NNE
Meteor 2-15 Rocket 4.4 18:36:42 10° S 18:42:45 63° E 18:48:48 10° NNE
Okean-O 3.3 18:42:57 10° SE 18:46:53 32° ENE 18:50:49 10° NNE
Cosmos 2219 4.2 18:42:41 10° NNE 18:47:16 25° ENE 18:51:51 10° SE
DMSP B5D1-3 4.5 18:43:56 10° NNE 18:49:04 72° ESE 18:54:11 10° S
Cosmos 2369 4.3 18:45:47 10° SSW 18:51:24 59° WNW 18:57:01 10° N
CZ-4 R/B 1.8 18:52:10 10° SE 18:55:52 37° ENE 18:59:28 10° N
CZ-2C R/B 3.5 18:55:33 10° SSE 18:57:01 12° SE 18:57:26 11° SE
H-2A R/B 3.4 18:58:50 20° NE 18:58:50 20° NE 19:01:30 10° NNE
SL-16 R/B 3.7 19:01:58 10° SSE 19:04:35 18° ESE 19:04:35 18° ESE
Orbus 7S 4.2 19:05:43 10° W 19:08:03 30° NNW 19:08:55 26° NNE
Spelda 4.3 19:02:11 10° WSW 19:08:54 25° SSW 19:10:56 16° SSE
CZ-2C R/B 3.1 19:11:03 34° ENE 19:12:05 37° E 19:16:55 10° SSE
ASC 2 Rocket 4.4 19:08:40 10° NW 19:12:38 30° NNE 19:13:40 27° NE
CZ-2D R/B 3.5 19:10:16 10° S 19:14:04 68° W 19:17:50 10° NNW
Cosmos 2058 4.2 19:11:21 10° N 19:17:22 26° SSE 19:19:19 10° SSE
Cosmos 1892 2.5 19:11:28 10° N 19:15:20 84° E 19:19:12 10° S
Atlas Centaur 2 4.5 19:09:11 10° WNW 19:15:44 24° N 19:20:08 16° NNE
SL-08 R/B 4.4 19:10:25 10° N 19:16:31 86° W 19:22:36 10° S
Cosmos 1745 Rocket 3.9 19:13:45 10° N 19:20:02 67° E 19:26:21 10° SSE
Cosmos 2227 Rocket 2.8 19:15:51 10° N 19:19:55 35° NE 19:19:55 35° NE
ATLAS 2AS CENTAUR RB 2.5 19:22:02 10° WSW 19:22:51 22° WSW 19:22:51 22° WSW
Hubble Space Telescope 0.9 19:21:40 10° WNW 19:25:45 67° SSW 19:26:11 61° SSE
SWIFT 2.4 19:28:04 10° WNW 19:32:14 73° SSW 19:32:14 73° SSW
Cosmos 1386 Rocket 4.4 19:26:56 10° N 19:33:16 85° E 19:39:30 10° S
EO 1 Delta rocket 4.1 19:39:17 31° N 19:41:29 68° W 19:46:27 10° SSW
Cosmos 1980 Rocket 3.9 19:37:12 10° SW 19:42:08 31° WNW 19:47:02 10° N
CSL-04 Debris 4.0 19:41:41 10° SSE 19:47:17 84° N 19:52:31 10° NNW
Cosmos 2315 Rocket 4.5 19:44:00 10° SSW 19:50:06 58° W 19:56:11 10° N
YAOGAN 1 3.8 19:46:42 10° S 19:50:45 41° W 19:54:49 10° NNW
Delta 7925 Rocket 4.2 19:46:28 10° W 19:52:03 45° NNW 19:52:03 45° NNW
Cosmos-2242 4.2 19:51:04 10° SSW 19:54:27 39° WSW 19:54:27 39° WSW
GPS 2-12 Rocket1 4.3 19:52:08 10° W 19:55:02 37° WSW 19:55:02 37° WSW
Cosmos 2297 Rocket 2.6 19:55:17 10° NNW 20:00:49 59° WSW 20:02:29 42° SSW
CZ-2C R/B 4.5 19:58:39 10° S 20:04:03 41° W 20:09:28 10° NNW
Cosmos 2322 Rocket 4.0 20:08:12 10° SSW 20:10:08 22° SSW 20:10:08 22° SSW
H-2A R/B 4.4 20:32:12 10° SSW 20:39:29 16° NW 20:40:51 10° NW
